When you browse on this site, cookies collect data to enhance your experience and personalize the content and advertising you see.
Visit our Privacy Policy to learn more. By continuing to use the site, you agree to this use of cookies and data.
  • In Deutschland
  • Länderverzeichnis
  • Für 7 Tage
  • Wassertemperatur
  • Wetterkarte
  • Widgets
  • user-avatar
    Anmelden

    Stündliche Wetter Graz

    Heute, 17 November, Sonntag

    Zeit Temperatur Niederschläge Wind Luftdruck Luftfeuchtigkeit
    00:00 +9°C° 0 mm 1 m/S 721 mmHg 95%
    01:00 +9°C° 0 mm 1 m/S 721 mmHg 96%
    02:00 +9°C° 0.2 mm 1 m/S 720 mmHg 96%
    03:00 +9°C° 0.2 mm 1 m/S 720 mmHg 97%
    04:00 +9°C° 0.2 mm 1 m/S 719 mmHg 97%
    05:00 +9°C° 0.1 mm 1 m/S 719 mmHg 98%
    06:00 +9°C° 0.1 mm 1 m/S 719 mmHg 98%
    07:00 +9°C° 0 mm 2 m/S 719 mmHg 98%
    08:00 +9°C° 0 mm 2 m/S 719 mmHg 97%
    09:00 +9°C° 0 mm 2 m/S 719 mmHg 97%
    10:00 +10°C° 0 mm 1 m/S 718 mmHg 96%
    11:00 +10°C° 0 mm 1 m/S 718 mmHg 96%
    12:00 +11°C° 0 mm 1 m/S 718 mmHg 95%
    13:00 +11°C° 0 mm 1 m/S 717 mmHg 95%
    14:00 +11°C° 0 mm 1 m/S 717 mmHg 95%
    15:00 +10°C° 0 mm 2 m/S 717 mmHg 96%
    16:00 +10°C° 0 mm 2 m/S 716 mmHg 97%
    17:00 +10°C° 0.4 mm 2 m/S 716 mmHg 97%
    18:00 +10°C° 0.4 mm 2 m/S 716 mmHg 97%
    19:00 +10°C° 0.4 mm 2 m/S 716 mmHg 96%
    20:00 +10°C° 2.8 mm 2 m/S 716 mmHg 97%
    21:00 +10°C° 2.8 mm 2 m/S 716 mmHg 97%
    22:00 +10°C° 2.8 mm 2 m/S 716 mmHg 97%
    23:00 +10°C° 1.6 mm 2 m/S 716 mmHg 98%

    Morgen, 18 November, Montag

    Zeit Temperatur Niederschläge Wind Luftdruck Luftfeuchtigkeit
    00:00 +11°C° 1.6 mm 1 m/S 716 mmHg 98%
    01:00 +11°C° 1.6 mm 1 m/S 716 mmHg 98%
    02:00 +11°C° 0.7 mm 1 m/S 716 mmHg 98%
    03:00 +11°C° 0.7 mm 1 m/S 716 mmHg 98%
    04:00 +11°C° 0.7 mm 1 m/S 716 mmHg 99%
    05:00 +10°C° 0.3 mm 1 m/S 716 mmHg 98%
    06:00 +10°C° 0.3 mm 1 m/S 717 mmHg 98%
    07:00 +10°C° 0.3 mm 1 m/S 717 mmHg 97%
    08:00 +11°C° 0.1 mm 1 m/S 718 mmHg 94%
    09:00 +11°C° 0.1 mm 1 m/S 718 mmHg 92%
    10:00 +11°C° 0.1 mm 1 m/S 719 mmHg 89%
    11:00 +12°C° 0 mm 1 m/S 719 mmHg 83%
    12:00 +12°C° 0 mm 2 m/S 719 mmHg 76%
    13:00 +13°C° 0 mm 2 m/S 720 mmHg 69%
    14:00 +12°C° 0 mm 2 m/S 720 mmHg 72%
    15:00 +10°C° 0 mm 1 m/S 720 mmHg 76%
    16:00 +9°C° 0 mm 1 m/S 721 mmHg 79%
    17:00 +9°C° 0 mm 1 m/S 721 mmHg 81%
    18:00 +8°C° 0 mm 1 m/S 722 mmHg 83%
    19:00 +7°C° 0 mm 1 m/S 722 mmHg 85%
    20:00 +6°C° 0 mm 1 m/S 723 mmHg 85%
    21:00 +6°C° 0 mm 1 m/S 723 mmHg 85%
    22:00 +6°C° 0 mm 1 m/S 723 mmHg 85%
    23:00 +6°C° 0 mm 1 m/S 723 mmHg 85%

    übermorgen, 19 November, Dienstag

    Zeit Temperatur Niederschläge Wind Luftdruck Luftfeuchtigkeit
    00:00 +6°C° 0 mm 1 m/S 724 mmHg 86%
    01:00 +5°C° 0 mm 0 m/S 724 mmHg 86%
    02:00 +5°C° 0 mm 0 m/S 724 mmHg 86%
    03:00 +5°C° 0 mm 0 m/S 723 mmHg 87%
    04:00 +6°C° 0 mm 0 m/S 723 mmHg 87%
    05:00 +5°C° 0 mm 0 m/S 723 mmHg 89%
    06:00 +5°C° 0 mm 0 m/S 723 mmHg 90%
    07:00 +5°C° 0 mm 0 m/S 723 mmHg 92%
    08:00 +7°C° 0 mm 1 m/S 724 mmHg 91%
    09:00 +8°C° 0 mm 1 m/S 724 mmHg 90%
    10:00 +8°C° 0 mm 1 m/S 724 mmHg 89%
    11:00 +9°C° 0 mm 1 m/S 724 mmHg 86%
    12:00 +10°C° 0 mm 1 m/S 724 mmHg 84%
    13:00 +11°C° 0 mm 1 m/S 724 mmHg 81%
    14:00 +11°C° 0 mm 1 m/S 724 mmHg 84%
    15:00 +10°C° 0 mm 1 m/S 724 mmHg 88%
    16:00 +8°C° 0 mm 0 m/S 724 mmHg 91%
    17:00 +8°C° 0 mm 0 m/S 724 mmHg 92%
    18:00 +8°C° 0 mm 0 m/S 724 mmHg 93%
    19:00 +8°C° 0 mm 0 m/S 725 mmHg 93%
    20:00 +7°C° 0 mm 0 m/S 725 mmHg 94%
    21:00 +7°C° 0 mm 0 m/S 725 mmHg 94%
    22:00 +7°C° 0 mm 0 m/S 725 mmHg 94%
    23:00 +7°C° 0 mm 0 m/S 725 mmHg 94%

    20 November, Mittwoch

    Zeit Temperatur Niederschläge Wind Luftdruck Luftfeuchtigkeit
    00:00 +6°C° 0 mm 0 m/S 725 mmHg 94%
    01:00 +6°C° 0 mm 0 m/S 725 mmHg 94%
    02:00 +6°C° 0 mm 0 m/S 725 mmHg 94%
    03:00 +6°C° 0 mm 0 m/S 725 mmHg 94%
    04:00 +7°C° 0 mm 1 m/S 725 mmHg 94%
    05:00 +6°C° 0 mm 0 m/S 725 mmHg 94%
    06:00 +6°C° 0 mm 0 m/S 725 mmHg 94%
    07:00 +6°C° 0 mm 0 m/S 725 mmHg 94%
    08:00 +7°C° 0 mm 0 m/S 725 mmHg 91%
    09:00 +8°C° 0 mm 0 m/S 725 mmHg 88%
    10:00 +9°C° 0 mm 0 m/S 725 mmHg 84%
    11:00 +10°C° 0 mm 0 m/S 725 mmHg 82%
    12:00 +10°C° 0 mm 0 m/S 725 mmHg 80%
    13:00 +11°C° 0 mm 0 m/S 725 mmHg 77%
    14:00 +10°C° 0 mm 0 m/S 724 mmHg 82%
    15:00 +9°C° 0 mm 0 m/S 724 mmHg 86%
    16:00 +8°C° 0 mm 0 m/S 724 mmHg 91%
    17:00 +8°C° 0 mm 0 m/S 724 mmHg 91%
    18:00 +8°C° 0 mm 0 m/S 724 mmHg 92%
    19:00 +7°C° 0 mm 0 m/S 724 mmHg 92%
    20:00 +8°C° 0 mm 0 m/S 724 mmHg 92%
    21:00 +8°C° 0 mm 0 m/S 724 mmHg 91%
    22:00 +8°C° 0 mm 0 m/S 724 mmHg 91%
    23:00 +8°C° 0 mm 0 m/S 723 mmHg 91%

    21 November, Donnerstag

    Zeit Temperatur Niederschläge Wind Luftdruck Luftfeuchtigkeit
    00:00 +8°C° 0 mm 0 m/S 723 mmHg 91%
    01:00 +7°C° 0 mm 0 m/S 723 mmHg 92%
    02:00 +7°C° 0 mm 0 m/S 723 mmHg 93%
    03:00 +7°C° 0 mm 0 m/S 722 mmHg 94%
    04:00 +7°C° 0 mm 0 m/S 722 mmHg 95%
    05:00 +6°C° 0 mm 0 m/S 722 mmHg 95%
    06:00 +6°C° 0 mm 0 m/S 722 mmHg 95%
    07:00 +6°C° 0 mm 0 m/S 722 mmHg 95%
    08:00 +7°C° 0 mm 0 m/S 722 mmHg 92%
    09:00 +8°C° 0 mm 0 m/S 722 mmHg 89%
    10:00 +9°C° 0 mm 1 m/S 722 mmHg 85%
    11:00 +10°C° 0 mm 1 m/S 722 mmHg 83%
    12:00 +10°C° 0 mm 1 m/S 721 mmHg 81%
    13:00 +11°C° 0 mm 1 m/S 721 mmHg 79%
    14:00 +10°C° 0 mm 1 m/S 721 mmHg 82%
    15:00 +9°C° 0 mm 1 m/S 721 mmHg 86%
    16:00 +9°C° 0 mm 1 m/S 721 mmHg 89%
    17:00 +9°C° 0 mm 1 m/S 721 mmHg 90%
    18:00 +8°C° 0 mm 1 m/S 721 mmHg 92%
    19:00 +8°C° 0 mm 1 m/S 721 mmHg 94%
    20:00 +7°C° 0 mm 1 m/S 721 mmHg 94%
    21:00 +7°C° 0 mm 1 m/S 722 mmHg 95%
    22:00 +7°C° 0 mm 1 m/S 722 mmHg 95%
    23:00 +7°C° 0 mm 1 m/S 722 mmHg 95%

    22 November, Freitag

    Zeit Temperatur Niederschläge Wind Luftdruck Luftfeuchtigkeit
    00:00 +7°C° 0 mm 1 m/S 722 mmHg 95%
    01:00 +7°C° 0 mm 1 m/S 722 mmHg 95%
    02:00 +7°C° 0 mm 1 m/S 722 mmHg 95%
    03:00 +6°C° 0 mm 1 m/S 722 mmHg 95%
    04:00 +6°C° 0 mm 1 m/S 722 mmHg 95%
    05:00 +6°C° 0 mm 1 m/S 722 mmHg 95%
    06:00 +6°C° 0 mm 1 m/S 722 mmHg 95%
    07:00 +6°C° 0 mm 1 m/S 722 mmHg 95%
    08:00 +7°C° 0 mm 1 m/S 723 mmHg 90%
    09:00 +8°C° 0 mm 1 m/S 723 mmHg 86%
    10:00 +9°C° 0 mm 1 m/S 723 mmHg 82%
    11:00 +10°C° 0 mm 1 m/S 723 mmHg 80%
    12:00 +10°C° 0 mm 1 m/S 723 mmHg 78%
    13:00 +11°C° 0 mm 1 m/S 722 mmHg 76%
    14:00 +10°C° 0 mm 1 m/S 722 mmHg 81%
    15:00 +9°C° 0 mm 1 m/S 722 mmHg 85%
    16:00 +9°C° 0 mm 1 m/S 722 mmHg 89%
    17:00 +8°C° 0 mm 1 m/S 722 mmHg 90%
    18:00 +8°C° 0 mm 1 m/S 722 mmHg 91%
    19:00 +7°C° 0 mm 1 m/S 722 mmHg 93%
    20:00 +7°C° 0 mm 1 m/S 722 mmHg 93%
    21:00 +7°C° 0 mm 1 m/S 723 mmHg 94%
    22:00 +7°C° 0 mm 1 m/S 723 mmHg 94%
    23:00 +7°C° 0 mm 1 m/S 723 mmHg 94%
    Mehr zeigen